When you browse on this site, cookies collect data to enhance your experience and personalize the content and advertising you see.
Visit our Privacy Policy to learn more. By continuing to use the site, you agree to this use of cookies and data.
  • In Czech Republic
  • List of Countries
  • For 7 days
  • Water Temperature
  • Satellite Maps
  • Weather Map
  • Weather Widgets
  • user-avatar
    Login

    Hourly Weather Bamenda

    Today, 24 April, Wednesday

    Time Temperature Precipitation Wind Pressure Humidity
    00:00 +19°C° 0 mm 0 mps 641 mmHg 82%
    01:00 +19°C° 0 mm 0 mps 641 mmHg 83%
    02:00 +19°C° 0.3 mm 0 mps 641 mmHg 84%
    03:00 +18°C° 0.3 mm 0 mps 641 mmHg 84%
    04:00 +18°C° 0.3 mm 0 mps 641 mmHg 85%
    05:00 +18°C° 0.1 mm 0 mps 641 mmHg 85%
    06:00 +19°C° 0.1 mm 0 mps 641 mmHg 85%
    07:00 +19°C° 0.1 mm 0 mps 641 mmHg 85%
    08:00 +23°C° 0.1 mm 1 mps 642 mmHg 76%
    09:00 +25°C° 0.1 mm 1 mps 643 mmHg 67%
    10:00 +28°C° 0.1 mm 1 mps 644 mmHg 58%
    11:00 +28°C° 0.1 mm 1 mps 644 mmHg 55%
    12:00 +29°C° 0.1 mm 2 mps 643 mmHg 51%
    13:00 +30°C° 0.1 mm 2 mps 643 mmHg 48%
    14:00 +29°C° 0.3 mm 2 mps 643 mmHg 50%
    15:00 +29°C° 0.3 mm 2 mps 642 mmHg 53%
    16:00 +28°C° 0.3 mm 1 mps 641 mmHg 56%
    17:00 +26°C° 0.3 mm 1 mps 641 mmHg 64%
    18:00 +25°C° 0.3 mm 1 mps 641 mmHg 72%
    19:00 +21°C° 0.3 mm 0 mps 641 mmHg 79%
    20:00 +21°C° 0.1 mm 0 mps 641 mmHg 81%
    21:00 +20°C° 0.1 mm 0 mps 642 mmHg 84%
    22:00 +19°C° 0.1 mm 0 mps 642 mmHg 86%
    23:00 +21°C° 0 mm 1 mps 642 mmHg 87%

    Tomorrow, 25 April, Thursday

    Time Temperature Precipitation Wind Pressure Humidity
    00:00 +21°C° 0 mm 1 mps 642 mmHg 88%
    01:00 +21°C° 0 mm 1 mps 641 mmHg 89%
    02:00 +20°C° 0 mm 1 mps 641 mmHg 89%
    03:00 +20°C° 0 mm 1 mps 641 mmHg 89%
    04:00 +20°C° 0 mm 1 mps 641 mmHg 89%
    05:00 +21°C° 0 mm 1 mps 641 mmHg 87%
    06:00 +21°C° 0 mm 1 mps 641 mmHg 85%
    07:00 +20°C° 0 mm 0 mps 642 mmHg 83%
    08:00 +24°C° 0 mm 1 mps 643 mmHg 73%
    09:00 +26°C° 0 mm 1 mps 644 mmHg 63%
    10:00 +29°C° 0 mm 1 mps 645 mmHg 54%
    11:00 +30°C° 0.1 mm 2 mps 644 mmHg 50%
    12:00 +30°C° 0.1 mm 2 mps 644 mmHg 47%
    13:00 +31°C° 0.1 mm 3 mps 644 mmHg 44%
    14:00 +30°C° 0.5 mm 2 mps 643 mmHg 46%
    15:00 +30°C° 0.5 mm 2 mps 642 mmHg 49%
    16:00 +29°C° 0.5 mm 2 mps 641 mmHg 51%
    17:00 +27°C° 0.4 mm 2 mps 641 mmHg 59%
    18:00 +25°C° 0.4 mm 1 mps 640 mmHg 66%
    19:00 +24°C° 0.4 mm 1 mps 640 mmHg 74%
    20:00 +23°C° 0 mm 1 mps 640 mmHg 75%
    21:00 +23°C° 0 mm 1 mps 641 mmHg 77%
    22:00 +20°C° 0 mm 0 mps 641 mmHg 79%
    23:00 +22°C° 0 mm 1 mps 641 mmHg 79%

    Day after tomorrow, 26 April, Friday

    Time Temperature Precipitation Wind Pressure Humidity
    00:00 +22°C° 0 mm 1 mps 641 mmHg 78%
    01:00 +22°C° 0 mm 1 mps 640 mmHg 78%
    02:00 +21°C° 0 mm 1 mps 640 mmHg 77%
    03:00 +21°C° 0 mm 1 mps 640 mmHg 77%
    04:00 +19°C° 0 mm 0 mps 639 mmHg 76%
    05:00 +21°C° 0 mm 1 mps 640 mmHg 77%
    06:00 +21°C° 0 mm 1 mps 640 mmHg 78%
    07:00 +21°C° 0 mm 1 mps 641 mmHg 79%
    08:00 +24°C° 0 mm 1 mps 642 mmHg 69%
    09:00 +26°C° 0 mm 2 mps 643 mmHg 59%
    10:00 +29°C° 0 mm 2 mps 644 mmHg 49%
    11:00 +30°C° 0 mm 2 mps 644 mmHg 45%
    12:00 +31°C° 0 mm 2 mps 644 mmHg 41%
    13:00 +32°C° 0 mm 2 mps 643 mmHg 38%
    14:00 +31°C° 0 mm 2 mps 642 mmHg 40%
    15:00 +31°C° 0 mm 2 mps 641 mmHg 43%
    16:00 +30°C° 0 mm 2 mps 640 mmHg 46%
    17:00 +28°C° 0.2 mm 2 mps 640 mmHg 53%
    18:00 +26°C° 0.2 mm 1 mps 640 mmHg 61%
    19:00 +24°C° 0.2 mm 1 mps 640 mmHg 69%
    20:00 +24°C° 0.1 mm 1 mps 640 mmHg 74%
    21:00 +23°C° 0.1 mm 1 mps 640 mmHg 80%
    22:00 +22°C° 0.1 mm 1 mps 641 mmHg 85%
    23:00 +22°C° 0.1 mm 1 mps 640 mmHg 87%

    27 April, Saturday

    Time Temperature Precipitation Wind Pressure Humidity
    00:00 +22°C° 0.1 mm 1 mps 640 mmHg 89%
    01:00 +22°C° 0.1 mm 1 mps 640 mmHg 91%
    02:00 +21°C° 0 mm 1 mps 639 mmHg 92%
    03:00 +21°C° 0 mm 1 mps 639 mmHg 92%
    04:00 +21°C° 0 mm 1 mps 639 mmHg 92%
    05:00 +21°C° 0 mm 1 mps 639 mmHg 91%
    06:00 +21°C° 0 mm 1 mps 640 mmHg 89%
    07:00 +22°C° 0 mm 1 mps 640 mmHg 88%
    08:00 +24°C° 0 mm 1 mps 641 mmHg 76%
    09:00 +27°C° 0 mm 1 mps 643 mmHg 64%
    10:00 +29°C° 0 mm 1 mps 644 mmHg 52%
    11:00 +30°C° 0 mm 1 mps 644 mmHg 48%
    12:00 +31°C° 0 mm 1 mps 643 mmHg 43%
    13:00 +32°C° 0 mm 1 mps 643 mmHg 38%
    14:00 +31°C° 0.1 mm 1 mps 642 mmHg 42%
    15:00 +30°C° 0.1 mm 1 mps 641 mmHg 45%
    16:00 +29°C° 0.1 mm 2 mps 640 mmHg 49%
    17:00 +27°C° 0.3 mm 1 mps 640 mmHg 58%
    18:00 +25°C° 0.3 mm 1 mps 640 mmHg 67%
    19:00 +23°C° 0.3 mm 1 mps 640 mmHg 76%
    20:00 +23°C° 0.1 mm 1 mps 640 mmHg 80%
    21:00 +22°C° 0.1 mm 1 mps 641 mmHg 83%
    22:00 +22°C° 0.1 mm 1 mps 641 mmHg 87%
    23:00 +22°C° 0 mm 1 mps 641 mmHg 88%

    28 April, Sunday

    Time Temperature Precipitation Wind Pressure Humidity
    00:00 +21°C° 0 mm 1 mps 640 mmHg 89%
    01:00 +21°C° 0 mm 1 mps 640 mmHg 90%
    02:00 +21°C° 0 mm 1 mps 639 mmHg 91%
    03:00 +20°C° 0 mm 1 mps 639 mmHg 91%
    04:00 +20°C° 0 mm 1 mps 639 mmHg 92%
    05:00 +21°C° 0 mm 1 mps 639 mmHg 90%
    06:00 +21°C° 0 mm 1 mps 640 mmHg 88%
    07:00 +21°C° 0 mm 1 mps 641 mmHg 86%
    08:00 +23°C° 0 mm 0 mps 642 mmHg 74%
    09:00 +26°C° 0 mm 0 mps 643 mmHg 63%
    10:00 +29°C° 0 mm 0 mps 644 mmHg 51%
    11:00 +31°C° 0.2 mm 1 mps 644 mmHg 49%
    12:00 +31°C° 0.2 mm 1 mps 643 mmHg 46%
    13:00 +32°C° 0.2 mm 1 mps 642 mmHg 43%
    14:00 +30°C° 0.4 mm 1 mps 642 mmHg 47%
    15:00 +29°C° 0.4 mm 1 mps 641 mmHg 51%
    16:00 +28°C° 0.4 mm 1 mps 640 mmHg 55%
    17:00 +27°C° 0.5 mm 1 mps 640 mmHg 62%
    18:00 +25°C° 0.5 mm 1 mps 640 mmHg 69%
    19:00 +23°C° 0.5 mm 1 mps 640 mmHg 76%
    20:00 +23°C° 0.1 mm 1 mps 641 mmHg 79%
    21:00 +22°C° 0.1 mm 1 mps 641 mmHg 82%
    22:00 +22°C° 0.1 mm 1 mps 641 mmHg 85%
    23:00 +22°C° 0 mm 1 mps 641 mmHg 86%

    29 April, Monday

    Time Temperature Precipitation Wind Pressure Humidity
    00:00 +21°C° 0 mm 1 mps 641 mmHg 87%
    01:00 +21°C° 0 mm 1 mps 640 mmHg 88%
    02:00 +21°C° 0.2 mm 1 mps 640 mmHg 88%
    03:00 +21°C° 0.2 mm 1 mps 640 mmHg 88%
    04:00 +21°C° 0.2 mm 1 mps 640 mmHg 88%
    05:00 +21°C° 0.2 mm 1 mps 640 mmHg 87%
    06:00 +21°C° 0.2 mm 1 mps 641 mmHg 85%
    07:00 +22°C° 0.2 mm 1 mps 641 mmHg 83%
    08:00 +23°C° 0.2 mm 0 mps 642 mmHg 74%
    09:00 +25°C° 0.2 mm 0 mps 644 mmHg 64%
    10:00 +28°C° 0.2 mm 0 mps 645 mmHg 54%
    11:00 +31°C° 0.5 mm 1 mps 644 mmHg 51%
    12:00 +31°C° 0.5 mm 1 mps 643 mmHg 48%
    13:00 +31°C° 0.5 mm 1 mps 643 mmHg 45%
    14:00 +30°C° 0.5 mm 1 mps 642 mmHg 50%
    15:00 +29°C° 0.5 mm 1 mps 641 mmHg 54%
    16:00 +28°C° 0.5 mm 1 mps 640 mmHg 58%
    17:00 +26°C° 1.8 mm 1 mps 640 mmHg 66%
    18:00 +25°C° 1.8 mm 1 mps 640 mmHg 74%
    19:00 +21°C° 1.8 mm 0 mps 641 mmHg 81%
    20:00 +21°C° 2.6 mm 0 mps 641 mmHg 83%
    21:00 +20°C° 2.6 mm 0 mps 641 mmHg 86%
    22:00 +20°C° 2.6 mm 0 mps 642 mmHg 88%
    23:00 +20°C° 1.1 mm 0 mps 641 mmHg 89%
    Show more